カタログに戻る

QIANFAN-162

運用中通信PO
NORAD 69121·PAYLOAD·🇨🇳 China

打ち上げ May 17, 2026 から Wenchang Space Launch Site

Loading…

次のパス (今後24時間)

TLE

最新Source: Space-Track

元期: Sep 14, 2026, 14:05 UTC

1 69121U 26108T   26257.58686143  .00000099  00000-0  13448-3 0  9990
2 69121  89.0191  13.0461 0002161 100.0253 260.1142 13.51022062 16549

AllMySatでQIANFAN-162をリアルタイム追跡

Download on the App Store